| time (UTC) | temp F | wind direction | speed MPH | gust MPH | rain 1hr in | rain 24hr in | rain mn in | humidity % | barometer mb |
| 20260831224539 | 65 | 265 | 0.0 | 1.0 | 0.00 | 0.00 | 0.00 | 100 | 1022.8 |
| 20260831224504 | 62 | 206 | 0.0 | 1.0 | 0.00 | 0.00 | 0.00 | 88 | 1022.3 |
| 20260831224304 | 62 | 232 | 0.0 | 1.0 | 0.00 | 0.00 | 0.00 | 88 | 1021.8 |
| 20260831224003 | 62 | 178 | 1.0 | 1.0 | 0.00 | 0.00 | 0.00 | 88 | 1022.3 |
| 20260831223803 | 62 | 223 | 0.0 | 1.0 | 0.00 | 0.00 | 0.00 | 88 | 1021.8 |
| 20260831223503 | 62 | 269 | 0.0 | 1.0 | 0.00 | 0.00 | 0.00 | 88 | 1022.3 |
| 20260831223303 | 62 | 254 | 0.0 | 1.0 | 0.00 | 0.00 | 0.00 | 88 | 1021.8 |
| 20260831223047 | 65 | 0 | 0.0 | 1.0 | 0.00 | 0.00 | 0.00 | 100 | 1022.9 |
| 20260831223003 | 62 | 269 | 0.0 | 1.0 | 0.00 | 0.00 | 0.00 | 88 | 1022.3 |
| 20260831222804 | 63 | 235 | 0.0 | 1.0 | 0.00 | 0.00 | 0.00 | 88 | 1021.8 |
| 20260831222503 | 62 | 178 | 0.0 | 1.0 | 0.00 | 0.00 | 0.00 | 88 | 1022.3 |
| 20260831222306 | 63 | 221 | 0.0 | 1.0 | 0.00 | 0.00 | 0.00 | 88 | 1021.8 |
| 20260831222003 | 63 | 269 | 0.0 | 1.0 | 0.00 | 0.00 | 0.00 | 88 | 1022.3 |
| 20260831221805 | 63 | 222 | 0.0 | 1.0 | 0.00 | 0.00 | 0.00 | 88 | 1021.8 |
| 20260831221729 | 63 | 178 | 0.0 | 1.0 | 0.00 | 0.00 | 0.00 | 88 | 1022.4 |
| 20260831221559 | 65 | 153 | 0.0 | 1.0 | 0.00 | 0.00 | 0.00 | 100 | 1022.9 |
| 20260831221303 | 63 | 107 | 0.0 | 1.0 | 0.00 | 0.00 | 0.00 | 88 | 1021.9 |
| 20260831221003 | 63 | 45 | 0.0 | 1.0 | 0.00 | 0.00 | 0.00 | 88 | 1022.5 |
| 20260831220804 | 63 | 131 | 0.0 | 1.0 | 0.00 | 0.00 | 0.00 | 87 | 1022.0 |
| 20260831220506 | 63 | 178 | 0.0 | 1.0 | 0.00 | 0.00 | 0.00 | 87 | 1022.5 |
| 20260831220303 | 63 | 70 | 0.0 | 1.0 | 0.00 | 0.00 | 0.00 | 87 | 1022.1 |
| 20260831220042 | 65 | 0 | 0.0 | 1.0 | 0.00 | 0.00 | 0.00 | 100 | 1023.2 |
| 20260831220002 | 63 | 135 | 0.0 | 1.0 | 0.00 | 0.00 | 0.00 | 86 | 1022.6 |
| 20260831215804 | 63 | 33 | 0.0 | 1.0 | 0.00 | 0.00 | 0.00 | 86 | 1022.1 |
| 20260831215504 | 63 | 45 | 0.0 | 1.0 | 0.00 | 0.00 | 0.00 | 86 | 1022.6 |
| 20260831215306 | 63 | 237 | 0.0 | 1.0 | 0.00 | 0.00 | 0.00 | 86 | 1022.1 |
| 20260831215004 | 63 | 1 | 0.0 | 2.0 | 0.00 | 0.00 | 0.00 | 86 | 1022.6 |
| 20260831214804 | 63 | 30 | 0.0 | 2.0 | 0.00 | 0.00 | 0.00 | 86 | 1022.1 |
| 20260831214553 | 65 | 0 | 0.0 | 2.0 | 0.00 | 0.00 | 0.00 | 100 | 1023.1 |
| 20260831214507 | 63 | 331 | 1.0 | 2.0 | 0.00 | 0.00 | 0.00 | 86 | 1022.6 |
| 20260831214303 | 64 | 6 | 0.0 | 2.0 | 0.00 | 0.00 | 0.00 | 86 | 1022.2 |
| 20260831214229 | 64 | 331 | 1.0 | 2.0 | 0.00 | 0.00 | 0.00 | 86 | 1022.7 |
| 20260831214003 | 64 | 331 | 1.0 | 2.0 | 0.00 | 0.00 | 0.00 | 86 | 1022.7 |
| 20260831213803 | 64 | 351 | 1.0 | 2.0 | 0.00 | 0.00 | 0.00 | 86 | 1022.2 |
| 20260831213505 | 64 | 1 | 0.0 | 2.0 | 0.00 | 0.00 | 0.00 | 85 | 1022.7 |
| 20260831213303 | 64 | 23 | 1.0 | 2.0 | 0.00 | 0.00 | 0.00 | 85 | 1022.2 |
| 20260831213041 | 65 | 0 | 1.0 | 2.0 | 0.00 | 0.00 | 0.00 | 100 | 1023.4 |
| 20260831213002 | 64 | 1 | 1.0 | 2.0 | 0.00 | 0.00 | 0.00 | 85 | 1022.7 |
| 20260831212803 | 64 | 353 | 1.0 | 2.0 | 0.00 | 0.00 | 0.00 | 85 | 1022.3 |
| 20260831212505 | 64 | 324 | 1.0 | 2.0 | 0.00 | 0.00 | 0.00 | 85 | 1022.7 |
| 20260831212306 | 64 | 339 | 0.0 | 2.0 | 0.00 | 0.00 | 0.00 | 85 | 1022.2 |
| 20260831212003 | 64 | 324 | 1.0 | 2.0 | 0.00 | 0.00 | 0.00 | 85 | 1022.7 |
| 20260831211803 | 64 | 341 | 1.0 | 2.0 | 0.00 | 0.00 | 0.00 | 85 | 1022.2 |
| 20260831211548 | 65 | 0 | 0.0 | 2.0 | 0.00 | 0.00 | 0.00 | 100 | 1023.3 |
| 20260831211504 | 64 | 314 | 0.0 | 2.0 | 0.00 | 0.00 | 0.00 | 85 | 1022.7 |
| 20260831211304 | 64 | 0 | 1.0 | 2.0 | 0.00 | 0.00 | 0.00 | 85 | 1022.2 |
| 20260831211003 | 64 | 1 | 1.0 | 3.0 | 0.00 | 0.00 | 0.00 | 84 | 1022.7 |
| 20260831210804 | 64 | 40 | 1.0 | 3.0 | 0.00 | 0.00 | 0.00 | 84 | 1022.2 |
| 20260831210504 | 64 | 344 | 1.0 | 3.0 | 0.00 | 0.00 | 0.00 | 84 | 1022.9 |
| 20260831210037 | 65 | 309 | 1.0 | 3.0 | 0.00 | 0.00 | 0.00 | 100 | 1023.3 |
| 20260831210003 | 65 | 28 | 1.0 | 3.0 | 0.00 | 0.00 | 0.00 | 84 | 1022.9 |
| 20260831205503 | 65 | 1 | 1.0 | 3.0 | 0.00 | 0.00 | 0.00 | 84 | 1022.7 |
| 20260831205305 | 65 | 330 | 1.0 | 3.0 | 0.00 | 0.00 | 0.00 | 84 | 1022.2 |
| 20260831205002 | 65 | 343 | 2.0 | 3.0 | 0.00 | 0.00 | 0.00 | 83 | 1022.7 |
| 20260831204803 | 65 | 339 | 1.0 | 3.0 | 0.00 | 0.00 | 0.00 | 83 | 1022.2 |
| 20260831204544 | 65 | 330 | 2.0 | 2.0 | 0.00 | 0.00 | 0.00 | 100 | 1023.3 |
| 20260831204503 | 65 | 321 | 2.0 | 3.0 | 0.00 | 0.00 | 0.00 | 83 | 1022.7 |
| 20260831204304 | 65 | 339 | 1.0 | 3.0 | 0.00 | 0.00 | 0.00 | 83 | 1022.2 |
| 20260831204002 | 65 | 348 | 1.0 | 3.0 | 0.00 | 0.00 | 0.00 | 83 | 1022.7 |
| 20260831203803 | 65 | 330 | 1.0 | 3.0 | 0.00 | 0.00 | 0.00 | 83 | 1022.1 |
| 20260831203503 | 65 | 331 | 2.0 | 3.0 | 0.00 | 0.00 | 0.00 | 82 | 1022.6 |
| 20260831203221 | 65 | 1 | 1.0 | 2.0 | 0.00 | 0.00 | 0.00 | 82 | 1022.6 |
| 20260831203049 | 65 | 0 | 0.0 | 2.0 | 0.00 | 0.00 | 0.00 | 100 | 1023.1 |
| 20260831202803 | 65 | 342 | 1.0 | 2.0 | 0.00 | 0.00 | 0.00 | 82 | 1022.0 |
| 20260831202503 | 65 | 1 | 1.0 | 3.0 | 0.00 | 0.00 | 0.00 | 82 | 1022.6 |
| 20260831202306 | 65 | 349 | 1.0 | 3.0 | 0.00 | 0.00 | 0.00 | 82 | 1022.0 |
| 20260831202223 | 65 | 348 | 2.0 | 4.0 | 0.00 | 0.00 | 0.00 | 82 | 1022.5 |
| 20260831202006 | 65 | 348 | 2.0 | 4.0 | 0.00 | 0.00 | 0.00 | 82 | 1022.5 |
| 20260831201803 | 66 | 342 | 1.0 | 3.0 | 0.00 | 0.00 | 0.00 | 82 | 1022.0 |
| 20260831201549 | 65 | 341 | 0.0 | 3.0 | 0.00 | 0.00 | 0.00 | 100 | 1023.1 |
| 20260831201503 | 66 | 331 | 2.0 | 4.0 | 0.00 | 0.00 | 0.00 | 82 | 1022.5 |
| 20260831201303 | 66 | 356 | 1.0 | 3.0 | 0.00 | 0.00 | 0.00 | 82 | 1021.9 |
| 20260831201232 | 66 | 45 | 2.0 | 4.0 | 0.00 | 0.00 | 0.00 | 81 | 1022.4 |
| 20260831201007 | 66 | 45 | 2.0 | 4.0 | 0.00 | 0.00 | 0.00 | 81 | 1022.4 |
| 20260831200803 | 66 | 9 | 1.0 | 3.0 | 0.00 | 0.00 | 0.00 | 81 | 1021.9 |
| 20260831200728 | 66 | 343 | 2.0 | 4.0 | 0.00 | 0.00 | 0.00 | 81 | 1022.5 |
| 20260831200303 | 66 | 344 | 1.0 | 3.0 | 0.00 | 0.00 | 0.00 | 81 | 1021.9 |
| 20260831200047 | 66 | 341 | 1.0 | 2.0 | 0.00 | 0.00 | 0.00 | 100 | 1022.9 |
| 20260831200002 | 66 | 354 | 2.0 | 5.0 | 0.00 | 0.00 | 0.00 | 81 | 1022.4 |
| 20260831195803 | 66 | 338 | 1.0 | 5.0 | 0.00 | 0.00 | 0.00 | 81 | 1021.9 |
| 20260831195504 | 66 | 10 | 2.0 | 5.0 | 0.00 | 0.00 | 0.00 | 81 | 1022.3 |
| 20260831195306 | 66 | 349 | 2.0 | 3.0 | 0.00 | 0.00 | 0.00 | 81 | 1021.7 |
| 20260831195227 | 66 | 351 | 2.0 | 3.0 | 0.00 | 0.00 | 0.00 | 81 | 1022.4 |
| 20260831194804 | 66 | 354 | 1.0 | 3.0 | 0.00 | 0.00 | 0.00 | 81 | 1021.8 |
| 20260831194723 | 66 | 341 | 1.0 | 5.0 | 0.00 | 0.00 | 0.00 | 81 | 1022.4 |
| 20260831194547 | 66 | 9 | 1.0 | 4.0 | 0.00 | 0.00 | 0.00 | 100 | 1022.9 |
| 20260831194303 | 66 | 3 | 1.0 | 3.0 | 0.00 | 0.00 | 0.00 | 81 | 1021.8 |
| 20260831194003 | 66 | 314 | 2.0 | 9.0 | 0.00 | 0.00 | 0.00 | 80 | 1022.4 |
| 20260831193804 | 66 | 344 | 3.0 | 6.0 | 0.00 | 0.00 | 0.00 | 80 | 1021.8 |
| 20260831193504 | 66 | 1 | 1.0 | 9.0 | 0.00 | 0.00 | 0.00 | 80 | 1022.4 |
| 20260831193041 | 66 | 325 | 3.0 | 4.0 | 0.00 | 0.00 | 0.00 | 100 | 1022.9 |
| 20260831193003 | 66 | 329 | 2.0 | 5.0 | 0.00 | 0.00 | 0.00 | 80 | 1022.3 |
| 20260831192804 | 66 | 337 | 2.0 | 6.0 | 0.00 | 0.00 | 0.00 | 80 | 1021.7 |
| 20260831192504 | 67 | 343 | 2.0 | 5.0 | 0.00 | 0.00 | 0.00 | 79 | 1022.3 |
| 20260831192305 | 67 | 351 | 2.0 | 5.0 | 0.00 | 0.00 | 0.00 | 79 | 1021.7 |
| 20260831192011 | 67 | 331 | 2.0 | 4.0 | 0.00 | 0.00 | 0.00 | 79 | 1022.2 |
| 20260831191803 | 67 | 327 | 2.0 | 5.0 | 0.00 | 0.00 | 0.00 | 79 | 1021.5 |
| 20260831191544 | 66 | 346 | 1.0 | 4.0 | 0.00 | 0.00 | 0.00 | 100 | 1022.7 |
| 20260831191504 | 67 | 8 | 2.0 | 5.0 | 0.00 | 0.00 | 0.00 | 79 | 1022.1 |
| 20260831191303 | 67 | 326 | 2.0 | 3.0 | 0.00 | 0.00 | 0.00 | 79 | 1021.5 |
| 20260831191003 | 67 | 348 | 3.0 | 5.0 | 0.00 | 0.00 | 0.00 | 79 | 1022.1 |
| 20260831190804 | 67 | 336 | 3.0 | 5.0 | 0.00 | 0.00 | 0.00 | 79 | 1021.5 |
| 20260831190729 | 67 | 338 | 2.0 | 4.0 | 0.00 | 0.00 | 0.00 | 79 | 1022.0 |
| 20260831190304 | 67 | 309 | 2.0 | 3.0 | 0.00 | 0.00 | 0.00 | 79 | 1021.5 |
| 20260831190055 | 66 | 325 | 1.0 | 5.0 | 0.00 | 0.00 | 0.00 | 100 | 1022.7 |
| 20260831190003 | 67 | 13 | 2.0 | 4.0 | 0.00 | 0.00 | 0.00 | 78 | 1022.1 |
| 20260831185804 | 67 | 342 | 3.0 | 5.0 | 0.00 | 0.00 | 0.00 | 78 | 1021.5 |
| 20260831185732 | 67 | 286 | 2.0 | 6.0 | 0.00 | 0.00 | 0.00 | 78 | 1022.0 |
| 20260831185306 | 67 | 302 | 2.0 | 3.0 | 0.00 | 0.00 | 0.00 | 78 | 1021.5 |
| 20260831185002 | 67 | 331 | 2.0 | 6.0 | 0.00 | 0.00 | 0.00 | 77 | 1022.1 |
| 20260831184804 | 67 | 324 | 3.0 | 6.0 | 0.00 | 0.00 | 0.00 | 77 | 1021.5 |
| 20260831184542 | 66 | 309 | 2.0 | 4.0 | 0.00 | 0.00 | 0.00 | 100 | 1022.7 |
| 20260831184504 | 67 | 354 | 2.0 | 4.0 | 0.00 | 0.00 | 0.00 | 77 | 1022.0 |
| 20260831184304 | 67 | 294 | 2.0 | 3.0 | 0.00 | 0.00 | 0.00 | 77 | 1021.5 |
| 20260831184002 | 67 | 269 | 2.0 | 5.0 | 0.00 | 0.00 | 0.00 | 77 | 1022.1 |
| 20260831183803 | 67 | 348 | 2.0 | 6.0 | 0.00 | 0.00 | 0.00 | 77 | 1021.4 |
| 20260831183732 | 67 | 20 | 3.0 | 6.0 | 0.00 | 0.00 | 0.00 | 77 | 1022.1 |
| 20260831183303 | 67 | 326 | 2.0 | 6.0 | 0.00 | 0.00 | 0.00 | 77 | 1021.5 |
| 20260831183048 | 67 | 342 | 2.0 | 5.0 | 0.00 | 0.00 | 0.00 | 100 | 1022.7 |
| 20260831183003 | 67 | 323 | 3.0 | 6.0 | 0.00 | 0.00 | 0.00 | 76 | 1022.1 |
| 20260831182804 | 67 | 332 | 3.0 | 8.0 | 0.00 | 0.00 | 0.00 | 76 | 1021.5 |
| 20260831182505 | 67 | 1 | 3.0 | 5.0 | 0.00 | 0.00 | 0.00 | 77 | 1022.1 |
| 20260831182305 | 67 | 293 | 2.0 | 5.0 | 0.00 | 0.00 | 0.00 | 77 | 1021.6 |
| 20260831182002 | 67 | 341 | 2.0 | 5.0 | 0.00 | 0.00 | 0.00 | 78 | 1022.2 |
| 20260831181804 | 67 | 345 | 2.0 | 5.0 | 0.00 | 0.00 | 0.00 | 77 | 1021.5 |
| 20260831181549 | 67 | 296 | 3.0 | 4.0 | 0.00 | 0.00 | 0.00 | 100 | 1022.8 |
| 20260831181504 | 67 | 330 | 3.0 | 5.0 | 0.00 | 0.00 | 0.00 | 77 | 1022.2 |
| 20260831181229 | 67 | 296 | 1.0 | 4.0 | 0.00 | 0.00 | 0.00 | 80 | 1022.2 |
| 20260831180803 | 67 | 332 | 1.0 | 3.0 | 0.00 | 0.00 | 0.00 | 80 | 1021.5 |
| 20260831180506 | 67 | 1 | 2.0 | 5.0 | 0.00 | 0.00 | 0.00 | 80 | 1022.1 |
| 20260831180304 | 67 | 343 | 2.0 | 5.0 | 0.00 | 0.00 | 0.00 | 80 | 1021.6 |
| 20260831180054 | 67 | 312 | 2.0 | 3.0 | 0.00 | 0.00 | 0.00 | 100 | 1022.8 |
| 20260831180002 | 68 | 343 | 3.0 | 5.0 | 0.00 | 0.00 | 0.00 | 80 | 1022.1 |
| 20260831175803 | 68 | 322 | 2.0 | 5.0 | 0.00 | 0.00 | 0.00 | 80 | 1021.5 |
| 20260831175505 | 68 | 241 | 1.0 | 4.0 | 0.00 | 0.00 | 0.00 | 80 | 1022.1 |
| 20260831175306 | 68 | 330 | 1.0 | 3.0 | 0.00 | 0.00 | 0.00 | 80 | 1021.5 |
| 20260831175001 | 68 | 341 | 2.0 | 5.0 | 0.00 | 0.00 | 0.00 | 79 | 1022.1 |
| 20260831174951 | 68 | 213 | 2.0 | 5.0 | 0.00 | 0.00 | 0.00 | 79 | 1022.0 |
| 20260831174803 | 68 | 322 | 2.0 | 5.0 | 0.00 | 0.00 | 0.00 | 80 | 1021.5 |
| 20260831174542 | 67 | 341 | 2.0 | 5.0 | 0.00 | 0.00 | 0.00 | 100 | 1022.7 |
| 20260831174303 | 68 | 335 | 2.0 | 6.0 | 0.00 | 0.00 | 0.00 | 79 | 1021.4 |
| 20260831174003 | 68 | 259 | 3.0 | 6.0 | 0.00 | 0.00 | 0.00 | 79 | 1022.0 |
| 20260831173503 | 68 | 341 | 3.0 | 6.0 | 0.00 | 0.00 | 0.00 | 78 | 1021.9 |
| 20260831173303 | 68 | 267 | 3.0 | 8.0 | 0.00 | 0.00 | 0.00 | 78 | 1021.4 |
| 20260831173052 | 68 | 321 | 2.0 | 7.0 | 0.00 | 0.00 | 0.00 | 100 | 1022.6 |
| 20260831173002 | 68 | 336 | 2.0 | 7.0 | 0.00 | 0.00 | 0.00 | 78 | 1021.9 |
| 20260831172803 | 68 | 327 | 2.0 | 7.0 | 0.00 | 0.00 | 0.00 | 78 | 1021.4 |
| 20260831172503 | 68 | 223 | 2.0 | 7.0 | 0.00 | 0.00 | 0.00 | 77 | 1022.0 |
| 20260831172003 | 69 | 344 | 4.0 | 9.0 | 0.00 | 0.00 | 0.00 | 75 | 1021.9 |
| 20260831171803 | 69 | 319 | 3.0 | 12.0 | 0.00 | 0.00 | 0.00 | 75 | 1021.3 |
| 20260831171543 | 69 | 309 | 5.0 | 9.0 | 0.00 | 0.00 | 0.00 | 100 | 1022.5 |
| 20260831171505 | 69 | 323 | 4.0 | 9.0 | 0.00 | 0.00 | 0.00 | 75 | 1021.8 |
| 20260831171304 | 69 | 297 | 2.0 | 9.0 | 0.00 | 0.00 | 0.00 | 74 | 1021.2 |
| 20260831171004 | 70 | 307 | 4.0 | 9.0 | 0.00 | 0.00 | 0.00 | 74 | 1021.8 |
| 20260831170803 | 70 | 335 | 2.0 | 5.0 | 0.00 | 0.00 | 0.00 | 74 | 1021.2 |
| 20260831170732 | 70 | 344 | 3.0 | 9.0 | 0.00 | 0.00 | 0.00 | 73 | 1021.8 |
| 20260831170044 | 70 | 221 | 3.0 | 7.0 | 0.00 | 0.00 | 0.00 | 100 | 1022.5 |
| 20260831170003 | 70 | 279 | 3.0 | 9.0 | 0.00 | 0.00 | 0.00 | 72 | 1021.8 |
| 20260831165803 | 70 | 327 | 4.0 | 9.0 | 0.00 | 0.00 | 0.00 | 72 | 1021.2 |
| 20260831165507 | 71 | 344 | 4.0 | 9.0 | 0.00 | 0.00 | 0.00 | 70 | 1021.8 |
| 20260831165305 | 71 | 338 | 2.0 | 9.0 | 0.00 | 0.00 | 0.00 | 70 | 1021.2 |
| 20260831165004 | 71 | 299 | 3.0 | 9.0 | 0.00 | 0.00 | 0.00 | 69 | 1021.8 |
| 20260831164803 | 71 | 314 | 3.0 | 8.0 | 0.00 | 0.00 | 0.00 | 69 | 1021.2 |
| 20260831164729 | 71 | 269 | 4.0 | 9.0 | 0.00 | 0.00 | 0.00 | 69 | 1021.8 |
| 20260831164549 | 71 | 265 | 3.0 | 6.0 | 0.00 | 0.00 | 0.00 | 100 | 1022.5 |
| 20260831164508 | 71 | 269 | 4.0 | 9.0 | 0.00 | 0.00 | 0.00 | 69 | 1021.8 |
| 20260831164005 | 71 | 1 | 4.0 | 7.0 | 0.00 | 0.00 | 0.00 | 69 | 1021.8 |
| 20260831163803 | 71 | 311 | 4.0 | 8.0 | 0.00 | 0.00 | 0.00 | 69 | 1021.3 |
| 20260831163504 | 72 | 327 | 3.0 | 10.0 | 0.00 | 0.00 | 0.00 | 68 | 1021.8 |
| 20260831163043 | 71 | 284 | 4.0 | 6.0 | 0.00 | 0.00 | 0.00 | 100 | 1022.4 |
| 20260831163005 | 72 | 353 | 5.0 | 10.0 | 0.00 | 0.00 | 0.00 | 67 | 1021.8 |
| 20260831162804 | 72 | 270 | 4.0 | 10.0 | 0.00 | 0.00 | 0.00 | 67 | 1021.2 |
| 20260831162503 | 72 | 276 | 5.0 | 10.0 | 0.00 | 0.00 | 0.00 | 66 | 1021.8 |
| 20260831162306 | 72 | 270 | 2.0 | 6.0 | 0.00 | 0.00 | 0.00 | 67 | 1021.2 |
| 20260831162002 | 72 | 334 | 4.0 | 9.0 | 0.00 | 0.00 | 0.00 | 67 | 1021.8 |
| 20260831161804 | 72 | 301 | 4.0 | 10.0 | 0.00 | 0.00 | 0.00 | 67 | 1021.2 |
| 20260831161550 | 72 | 329 | 3.0 | 6.0 | 0.00 | 0.00 | 0.00 | 100 | 1022.4 |
| 20260831161504 | 72 | 331 | 4.0 | 11.0 | 0.00 | 0.00 | 0.00 | 66 | 1021.7 |
| 20260831161304 | 72 | 310 | 2.0 | 9.0 | 0.00 | 0.00 | 0.00 | 67 | 1021.2 |
| 20260831161004 | 73 | 178 | 5.0 | 11.0 | 0.00 | 0.00 | 0.00 | 66 | 1021.7 |
| 20260831160509 | 73 | 283 | 2.0 | 4.0 | 0.00 | 0.00 | 0.00 | 67 | 1021.8 |
| 20260831160303 | 73 | 295 | 2.0 | 5.0 | 0.00 | 0.00 | 0.00 | 67 | 1021.2 |
| 20260831160047 | 72 | 273 | 3.0 | 5.0 | 0.00 | 0.00 | 0.00 | 100 | 1022.5 |
| 20260831160002 | 73 | 343 | 3.0 | 5.0 | 0.00 | 0.00 | 0.00 | 67 | 1021.8 |
| 20260831155725 | 72 | 341 | 3.0 | 7.0 | 0.00 | 0.00 | 0.00 | 68 | 1021.9 |
| 20260831155306 | 72 | 293 | 3.0 | 7.0 | 0.00 | 0.00 | 0.00 | 68 | 1021.3 |
| 20260831155002 | 72 | 316 | 3.0 | 7.0 | 0.00 | 0.00 | 0.00 | 67 | 1021.9 |
| 20260831154803 | 72 | 303 | 3.0 | 8.0 | 0.00 | 0.00 | 0.00 | 67 | 1021.2 |
| 20260831154608 | 72 | 333 | 3.0 | 4.0 | 0.00 | 0.00 | 0.00 | 100 | 1022.5 |
| 20260831154505 | 72 | 279 | 3.0 | 6.0 | 0.00 | 0.00 | 0.00 | 69 | 1021.9 |
| 20260831154003 | 72 | 326 | 4.0 | 6.0 | 0.00 | 0.00 | 0.00 | 68 | 1021.8 |
| 20260831153505 | 72 | 309 | 3.0 | 6.0 | 0.00 | 0.00 | 0.00 | 68 | 1021.9 |
| 20260831153303 | 72 | 316 | 3.0 | 7.0 | 0.00 | 0.00 | 0.00 | 68 | 1021.3 |
| 20260831153044 | 71 | 265 | 1.0 | 6.0 | 0.00 | 0.00 | 0.00 | 100 | 1022.6 |
| 20260831153005 | 72 | 252 | 3.0 | 9.0 | 0.00 | 0.00 | 0.00 | 67 | 1021.9 |
| 20260831152803 | 72 | 299 | 3.0 | 9.0 | 0.00 | 0.00 | 0.00 | 67 | 1021.4 |
| 20260831152504 | 72 | 331 | 4.0 | 9.0 | 0.00 | 0.00 | 0.00 | 66 | 1022.0 |
| 20260831152306 | 72 | 323 | 2.0 | 7.0 | 0.00 | 0.00 | 0.00 | 66 | 1021.4 |
| 20260831152003 | 72 | 300 | 3.0 | 9.0 | 0.00 | 0.00 | 0.00 | 66 | 1022.0 |
| 20260831151803 | 72 | 311 | 4.0 | 9.0 | 0.00 | 0.00 | 0.00 | 66 | 1021.4 |
| 20260831151549 | 72 | 328 | 4.0 | 5.0 | 0.00 | 0.00 | 0.00 | 100 | 1022.7 |
| 20260831151503 | 72 | 317 | 4.0 | 9.0 | 0.00 | 0.00 | 0.00 | 67 | 1022.1 |
| 20260831151304 | 72 | 297 | 3.0 | 8.0 | 0.00 | 0.00 | 0.00 | 67 | 1021.5 |
| 20260831151002 | 72 | 306 | 3.0 | 9.0 | 0.00 | 0.00 | 0.00 | 68 | 1022.1 |
| 20260831150803 | 72 | 292 | 3.0 | 9.0 | 0.00 | 0.00 | 0.00 | 67 | 1021.6 |
| 20260831150505 | 72 | 282 | 4.0 | 9.0 | 0.00 | 0.00 | 0.00 | 67 | 1022.2 |
| 20260831150304 | 72 | 320 | 4.0 | 10.0 | 0.00 | 0.00 | 0.00 | 66 | 1021.6 |
| 20260831150229 | 72 | 17 | 4.0 | 9.0 | 0.00 | 0.00 | 0.00 | 68 | 1022.3 |
| 20260831150043 | 71 | 338 | 3.0 | 7.0 | 0.00 | 0.00 | 0.00 | 100 | 1022.8 |
| 20260831145803 | 72 | 321 | 4.0 | 8.0 | 0.00 | 0.00 | 0.00 | 66 | 1021.7 |
| 20260831145730 | 72 | 296 | 4.0 | 10.0 | 0.00 | 0.00 | 0.00 | 66 | 1022.2 |
| 20260831145306 | 72 | 314 | 3.0 | 8.0 | 0.00 | 0.00 | 0.00 | 65 | 1021.6 |
| 20260831145003 | 72 | 258 | 4.0 | 10.0 | 0.00 | 0.00 | 0.00 | 65 | 1022.2 |
| 20260831144803 | 72 | 302 | 5.0 | 12.0 | 0.00 | 0.00 | 0.00 | 65 | 1021.6 |
| 20260831144550 | 71 | 319 | 4.0 | 8.0 | 0.00 | 0.00 | 0.00 | 100 | 1022.8 |
| 20260831144505 | 72 | 286 | 4.0 | 10.0 | 0.00 | 0.00 | 0.00 | 64 | 1022.2 |
| 20260831144303 | 72 | 316 | 5.0 | 10.0 | 0.00 | 0.00 | 0.00 | 63 | 1021.5 |
| 20260831144004 | 72 | 326 | 5.0 | 10.0 | 0.00 | 0.00 | 0.00 | 64 | 1022.2 |
| 20260831143803 | 72 | 327 | 4.0 | 8.0 | 0.00 | 0.00 | 0.00 | 64 | 1021.7 |
| 20260831143505 | 72 | 293 | 4.0 | 10.0 | 0.00 | 0.00 | 0.00 | 64 | 1022.2 |
| 20260831143304 | 72 | 305 | 4.0 | 10.0 | 0.00 | 0.00 | 0.00 | 63 | 1021.7 |
| 20260831143042 | 72 | 315 | 3.0 | 7.0 | 0.00 | 0.00 | 0.00 | 100 | 1022.9 |
| 20260831143004 | 72 | 316 | 3.0 | 9.0 | 0.00 | 0.00 | 0.00 | 63 | 1022.4 |
| 20260831142803 | 72 | 299 | 5.0 | 10.0 | 0.00 | 0.00 | 0.00 | 63 | 1021.8 |
| 20260831142505 | 73 | 316 | 5.0 | 9.0 | 0.00 | 0.00 | 0.00 | 63 | 1022.4 |
| 20260831142445 | 73 | 330 | 4.0 | 9.0 | 0.00 | 0.00 | 0.00 | 63 | 1022.4 |
| 20260831141804 | 73 | 309 | 4.0 | 9.0 | 0.00 | 0.00 | 0.00 | 63 | 1021.8 |
| 20260831141549 | 73 | 327 | 6.0 | 9.0 | 0.00 | 0.00 | 0.00 | 100 | 1023.0 |
| 20260831141505 | 73 | 252 | 5.0 | 9.0 | 0.00 | 0.00 | 0.00 | 62 | 1022.4 |
| 20260831141304 | 74 | 315 | 4.0 | 15.0 | 0.00 | 0.00 | 0.00 | 62 | 1021.8 |
| 20260831141003 | 74 | 314 | 5.0 | 7.0 | 0.00 | 0.00 | 0.00 | 62 | 1022.4 |
| 20260831140804 | 74 | 300 | 4.0 | 9.0 | 0.00 | 0.00 | 0.00 | 62 | 1021.8 |
| 20260831140729 | 74 | 292 | 4.0 | 7.0 | 0.00 | 0.00 | 0.00 | 63 | 1022.5 |
| 20260831140304 | 74 | 296 | 3.0 | 8.0 | 0.00 | 0.00 | 0.00 | 62 | 1021.8 |
| 20260831140043 | 74 | 294 | 2.0 | 5.0 | 0.00 | 0.00 | 0.00 | 100 | 1022.9 |
| 20260831140002 | 74 | 305 | 2.0 | 5.0 | 0.00 | 0.00 | 0.00 | 63 | 1022.4 |
| 20260831135504 | 74 | 51 | 2.0 | 9.0 | 0.00 | 0.00 | 0.00 | 62 | 1022.4 |
| 20260831135306 | 74 | 314 | 3.0 | 10.0 | 0.00 | 0.00 | 0.00 | 61 | 1021.8 |
| 20260831135002 | 74 | 336 | 4.0 | 9.0 | 0.00 | 0.00 | 0.00 | 61 | 1022.4 |
| 20260831134546 | 74 | 200 | 0.0 | 4.0 | 0.00 | 0.00 | 0.00 | 100 | 1022.9 |
| 20260831134505 | 74 | 350 | 2.0 | 6.0 | 0.00 | 0.00 | 0.00 | 62 | 1022.5 |
| 20260831134003 | 74 | 314 | 2.0 | 7.0 | 0.00 | 0.00 | 0.00 | 61 | 1022.5 |
| 20260831133803 | 74 | 313 | 3.0 | 8.0 | 0.00 | 0.00 | 0.00 | 62 | 1021.8 |
| 20260831133733 | 74 | 298 | 3.0 | 7.0 | 0.00 | 0.00 | 0.00 | 60 | 1022.5 |
| 20260831133304 | 74 | 328 | 3.0 | 8.0 | 0.00 | 0.00 | 0.00 | 61 | 1021.8 |
| 20260831133233 | 74 | 348 | 3.0 | 7.0 | 0.00 | 0.00 | 0.00 | 61 | 1022.5 |
| 20260831133052 | 74 | 334 | 2.0 | 5.0 | 0.00 | 0.00 | 0.00 | 100 | 1023.0 |
| 20260831132804 | 74 | 326 | 2.0 | 8.0 | 0.00 | 0.00 | 0.00 | 61 | 1021.9 |
| 20260831132504 | 74 | 341 | 3.0 | 7.0 | 0.00 | 0.00 | 0.00 | 62 | 1022.5 |
| 20260831132306 | 75 | 0 | 3.0 | 6.0 | 0.00 | 0.00 | 0.00 | 61 | 1021.9 |
| 20260831132005 | 74 | 286 | 2.0 | 6.0 | 0.00 | 0.00 | 0.00 | 62 | 1022.4 |
| 20260831131804 | 74 | 342 | 2.0 | 7.0 | 0.00 | 0.00 | 0.00 | 61 | 1021.8 |
| 20260831131552 | 74 | 51 | 3.0 | 5.0 | 0.00 | 0.00 | 0.00 | 100 | 1023.0 |
| 20260831131503 | 74 | 1 | 3.0 | 6.0 | 0.00 | 0.00 | 0.00 | 61 | 1022.4 |
| 20260831131303 | 74 | 352 | 2.0 | 9.0 | 0.00 | 0.00 | 0.00 | 62 | 1021.8 |
| 20260831131003 | 74 | 330 | 3.0 | 11.0 | 0.00 | 0.00 | 0.00 | 62 | 1022.4 |
| 20260831130804 | 74 | 37 | 3.0 | 9.0 | 0.00 | 0.00 | 0.00 | 62 | 1021.8 |
| 20260831130504 | 74 | 223 | 3.0 | 11.0 | 0.00 | 0.00 | 0.00 | 61 | 1022.5 |
| 20260831130225 | 74 | 316 | 4.0 | 7.0 | 0.00 | 0.00 | 0.00 | 60 | 1022.6 |
| 20260831130050 | 74 | 333 | 3.0 | 6.0 | 0.00 | 0.00 | 0.00 | 100 | 1023.1 |
| 20260831125504 | 74 | 341 | 3.0 | 6.0 | 0.00 | 0.00 | 0.00 | 61 | 1022.6 |
| 20260831125306 | 74 | 286 | 3.0 | 7.0 | 0.00 | 0.00 | 0.00 | 61 | 1021.9 |
| 20260831125002 | 74 | 309 | 2.0 | 6.0 | 0.00 | 0.00 | 0.00 | 61 | 1022.6 |
| 20260831124803 | 74 | 327 | 2.0 | 8.0 | 0.00 | 0.00 | 0.00 | 60 | 1022.0 |
| 20260831124550 | 73 | 247 | 2.0 | 5.0 | 0.00 | 0.00 | 0.00 | 100 | 1023.2 |
| 20260831124504 | 74 | 269 | 4.0 | 6.0 | 0.00 | 0.00 | 0.00 | 59 | 1022.6 |
| 20260831124303 | 74 | 303 | 2.0 | 6.0 | 0.00 | 0.00 | 0.00 | 60 | 1022.0 |
| 20260831124002 | 74 | 285 | 2.0 | 5.0 | 0.00 | 0.00 | 0.00 | 59 | 1022.7 |
| 20260831123506 | 74 | 254 | 3.0 | 5.0 | 0.00 | 0.00 | 0.00 | 59 | 1022.7 |
| 20260831123043 | 73 | 337 | 1.0 | 3.0 | 0.00 | 0.00 | 0.00 | 100 | 1023.4 |
| 20260831123001 | 74 | 327 | 2.0 | 4.0 | 0.00 | 0.00 | 0.00 | 60 | 1022.7 |
| 20260831122508 | 74 | 258 | 2.0 | 5.0 | 0.00 | 0.00 | 0.00 | 61 | 1022.9 |
| 20260831122305 | 74 | 19 | 2.0 | 5.0 | 0.00 | 0.00 | 0.00 | 59 | 1022.2 |
| 20260831122003 | 74 | 329 | 2.0 | 6.0 | 0.00 | 0.00 | 0.00 | 60 | 1023.0 |
| 20260831121804 | 74 | 296 | 3.0 | 9.0 | 0.00 | 0.00 | 0.00 | 60 | 1022.3 |
| 20260831121723 | 74 | 244 | 2.0 | 6.0 | 0.00 | 0.00 | 0.00 | 59 | 1022.9 |
| 20260831121545 | 73 | 284 | 3.0 | 7.0 | 0.00 | 0.00 | 0.00 | 100 | 1023.6 |
| 20260831121303 | 74 | 257 | 2.0 | 6.0 | 0.00 | 0.00 | 0.00 | 59 | 1022.3 |
| 20260831121222 | 74 | 1 | 3.0 | 6.0 | 0.00 | 0.00 | 0.00 | 59 | 1023.1 |
| 20260831120804 | 74 | 248 | 3.0 | 5.0 | 0.00 | 0.00 | 0.00 | 59 | 1022.5 |
| 20260831120505 | 74 | 223 | 2.0 | 7.0 | 0.00 | 0.00 | 0.00 | 59 | 1023.0 |
| 20260831120304 | 74 | 304 | 2.0 | 8.0 | 0.00 | 0.00 | 0.00 | 59 | 1022.4 |
| 20260831120044 | 73 | 217 | 2.0 | 4.0 | 0.00 | 0.00 | 0.00 | 100 | 1023.7 |
| 20260831120002 | 74 | 1 | 3.0 | 7.0 | 0.00 | 0.00 | 0.00 | 59 | 1023.1 |
| 20260831115804 | 74 | 15 | 1.0 | 7.0 | 0.00 | 0.00 | 0.00 | 58 | 1022.5 |
| 20260831115504 | 74 | 234 | 3.0 | 5.0 | 0.00 | 0.00 | 0.00 | 58 | 1023.1 |
| 20260831115306 | 74 | 0 | 2.0 | 5.0 | 0.00 | 0.00 | 0.00 | 59 | 1022.5 |
| 20260831115003 | 74 | 152 | 1.0 | 4.0 | 0.00 | 0.00 | 0.00 | 56 | 1023.1 |
| 20260831114803 | 74 | 168 | 1.0 | 3.0 | 0.00 | 0.00 | 0.00 | 55 | 1022.5 |
| 20260831114543 | 73 | 340 | 1.0 | 3.0 | 0.00 | 0.00 | 0.00 | 100 | 1023.8 |
| 20260831114504 | 74 | 314 | 2.0 | 4.0 | 0.00 | 0.00 | 0.00 | 57 | 1023.2 |
| 20260831114303 | 74 | 327 | 1.0 | 3.0 | 0.00 | 0.00 | 0.00 | 57 | 1022.6 |
| 20260831114007 | 74 | 285 | 2.0 | 4.0 | 0.00 | 0.00 | 0.00 | 58 | 1023.3 |
| 20260831113804 | 74 | 259 | 1.0 | 3.0 | 0.00 | 0.00 | 0.00 | 58 | 1022.6 |
| 20260831113504 | 74 | 307 | 2.0 | 5.0 | 0.00 | 0.00 | 0.00 | 57 | 1023.3 |
| 20260831113304 | 74 | 43 | 2.0 | 5.0 | 0.00 | 0.00 | 0.00 | 57 | 1022.7 |
| 20260831113048 | 73 | 325 | 3.0 | 4.0 | 0.00 | 0.00 | 0.00 | 100 | 1023.8 |
| 20260831113003 | 74 | 38 | 3.0 | 5.0 | 0.00 | 0.00 | 0.00 | 56 | 1023.3 |
| 20260831112804 | 74 | 10 | 2.0 | 3.0 | 0.00 | 0.00 | 0.00 | 57 | 1022.7 |
| 20260831112503 | 74 | 24 | 1.0 | 4.0 | 0.00 | 0.00 | 0.00 | 57 | 1023.3 |
| 20260831112307 | 73 | 145 | 2.0 | 3.0 | 0.00 | 0.00 | 0.00 | 58 | 1022.7 |
| 20260831112010 | 73 | 80 | 2.0 | 4.0 | 0.00 | 0.00 | 0.00 | 59 | 1023.3 |
| 20260831111803 | 73 | 50 | 1.0 | 3.0 | 0.00 | 0.00 | 0.00 | 59 | 1022.7 |
| 20260831111545 | 72 | 61 | 1.0 | 3.0 | 0.00 | 0.00 | 0.00 | 100 | 1023.9 |
| 20260831111504 | 72 | 344 | 2.0 | 3.0 | 0.00 | 0.00 | 0.00 | 59 | 1023.3 |
| 20260831111304 | 72 | 34 | 2.0 | 3.0 | 0.00 | 0.00 | 0.00 | 60 | 1022.8 |
| 20260831111225 | 72 | 45 | 1.0 | 3.0 | 0.00 | 0.00 | 0.00 | 61 | 1023.3 |
| 20260831110805 | 72 | 85 | 2.0 | 3.0 | 0.00 | 0.00 | 0.00 | 60 | 1022.8 |
| 20260831110503 | 72 | 20 | 2.0 | 7.0 | 0.00 | 0.00 | 0.00 | 60 | 1023.3 |
| 20260831110303 | 72 | 31 | 1.0 | 3.0 | 0.00 | 0.00 | 0.00 | 61 | 1022.8 |
| 20260831110046 | 71 | 205 | 1.0 | 4.0 | 0.00 | 0.00 | 0.00 | 100 | 1024.0 |
| 20260831110002 | 72 | 223 | 2.0 | 7.0 | 0.00 | 0.00 | 0.00 | 59 | 1023.3 |
| 20260831105804 | 72 | 337 | 3.0 | 8.0 | 0.00 | 0.00 | 0.00 | 58 | 1022.8 |
| 20260831105504 | 72 | 45 | 2.0 | 5.0 | 0.00 | 0.00 | 0.00 | 62 | 1023.4 |
| 20260831105306 | 72 | 2 | 2.0 | 5.0 | 0.00 | 0.00 | 0.00 | 59 | 1022.8 |
| 20260831105002 | 72 | 21 | 2.0 | 5.0 | 0.00 | 0.00 | 0.00 | 62 | 1023.4 |
| 20260831104803 | 72 | 326 | 1.0 | 5.0 | 0.00 | 0.00 | 0.00 | 62 | 1022.8 |
| 20260831104726 | 72 | 223 | 2.0 | 4.0 | 0.00 | 0.00 | 0.00 | 61 | 1023.4 |
| 20260831104543 | 71 | 215 | 1.0 | 2.0 | 0.00 | 0.00 | 0.00 | 100 | 1023.9 |
| 20260831104001 | 71 | 66 | 2.0 | 4.0 | 0.00 | 0.00 | 0.00 | 62 | 1023.4 |
| 20260831103804 | 71 | 321 | 1.0 | 3.0 | 0.00 | 0.00 | 0.00 | 63 | 1022.8 |
| 20260831103503 | 71 | 327 | 2.0 | 4.0 | 0.00 | 0.00 | 0.00 | 62 | 1023.5 |
| 20260831103303 | 71 | 249 | 2.0 | 5.0 | 0.00 | 0.00 | 0.00 | 61 | 1022.8 |
| 20260831103044 | 71 | 293 | 1.0 | 4.0 | 0.00 | 0.00 | 0.00 | 100 | 1024.0 |
| 20260831103003 | 71 | 324 | 1.0 | 4.0 | 0.00 | 0.00 | 0.00 | 61 | 1023.5 |
| 20260831102503 | 71 | 124 | 1.0 | 3.0 | 0.00 | 0.00 | 0.00 | 63 | 1023.6 |
| 20260831102305 | 70 | 91 | 1.0 | 3.0 | 0.00 | 0.00 | 0.00 | 64 | 1022.9 |
| 20260831102003 | 70 | 1 | 2.0 | 3.0 | 0.00 | 0.00 | 0.00 | 64 | 1023.5 |
| 20260831101803 | 70 | 52 | 1.0 | 3.0 | 0.00 | 0.00 | 0.00 | 64 | 1023.0 |
| 20260831101551 | 69 | 178 | 1.0 | 3.0 | 0.00 | 0.00 | 0.00 | 100 | 1024.0 |
| 20260831101513 | 70 | 135 | 2.0 | 3.0 | 0.00 | 0.00 | 0.00 | 67 | 1023.5 |
| 20260831101304 | 70 | 84 | 1.0 | 3.0 | 0.00 | 0.00 | 0.00 | 67 | 1023.0 |
| 20260831101002 | 69 | 165 | 2.0 | 3.0 | 0.00 | 0.00 | 0.00 | 67 | 1023.5 |
| 20260831100804 | 69 | 169 | 1.0 | 2.0 | 0.00 | 0.00 | 0.00 | 67 | 1023.0 |
| 20260831100506 | 69 | 269 | 1.0 | 2.0 | 0.00 | 0.00 | 0.00 | 68 | 1023.5 |
| 20260831100223 | 68 | 178 | 1.0 | 3.0 | 0.00 | 0.00 | 0.00 | 72 | 1023.5 |
| 20260831100044 | 68 | 0 | 0.0 | 2.0 | 0.00 | 0.00 | 0.00 | 100 | 1024.0 |
| 20260831095804 | 68 | 89 | 1.0 | 2.0 | 0.00 | 0.00 | 0.00 | 72 | 1022.9 |
| 20260831095505 | 68 | 56 | 1.0 | 3.0 | 0.00 | 0.00 | 0.00 | 72 | 1023.5 |
| 20260831095306 | 68 | 53 | 1.0 | 2.0 | 0.00 | 0.00 | 0.00 | 73 | 1022.9 |
| 20260831095002 | 67 | 314 | 1.0 | 2.0 | 0.00 | 0.00 | 0.00 | 77 | 1023.5 |
| 20260831094804 | 67 | 17 | 0.0 | 2.0 | 0.00 | 0.00 | 0.00 | 77 | 1022.9 |
| 20260831094544 | 66 | 51 | 1.0 | 2.0 | 0.00 | 0.00 | 0.00 | 100 | 1024.0 |
| 20260831094505 | 67 | 45 | 1.0 | 2.0 | 0.00 | 0.00 | 0.00 | 78 | 1023.4 |
| 20260831094332 | 66 | 89 | 1.0 | 2.0 | 0.00 | 0.00 | 0.00 | 83 | 1023.4 |
| 20260831094325 | 67 | 178 | 1.0 | 2.0 | 0.00 | 0.00 | 0.00 | 80 | 1023.4 |
| 20260831093803 | 66 | 122 | 1.0 | 2.0 | 0.00 | 0.00 | 0.00 | 80 | 1022.8 |
| 20260831093303 | 66 | 198 | 1.0 | 2.0 | 0.00 | 0.00 | 0.00 | 84 | 1022.9 |
| 20260831093231 | 66 | 135 | 0.0 | 2.0 | 0.00 | 0.00 | 0.00 | 85 | 1023.4 |
| 20260831093049 | 66 | 0 | 0.0 | 1.0 | 0.00 | 0.00 | 0.00 | 100 | 1024.0 |
| 20260831092503 | 66 | 241 | 1.0 | 2.0 | 0.00 | 0.00 | 0.00 | 86 | 1023.5 |
| 20260831092306 | 66 | 203 | 1.0 | 2.0 | 0.00 | 0.00 | 0.00 | 86 | 1023.0 |
| 20260831092009 | 65 | 223 | 1.0 | 2.0 | 0.00 | 0.00 | 0.00 | 87 | 1023.4 |
| 20260831091805 | 65 | 312 | 1.0 | 2.0 | 0.00 | 0.00 | 0.00 | 86 | 1023.0 |
| 20260831091556 | 64 | 325 | 0.0 | 2.0 | 0.00 | 0.00 | 0.00 | 100 | 1024.0 |
| 20260831091504 | 65 | 20 | 1.0 | 2.0 | 0.00 | 0.00 | 0.00 | 86 | 1023.4 |
| 20260831091002 | 64 | 135 | 1.0 | 2.0 | 0.00 | 0.00 | 0.00 | 88 | 1023.5 |
| 20260831090803 | 64 | 161 | 1.0 | 2.0 | 0.00 | 0.00 | 0.00 | 88 | 1022.9 |
| 20260831090502 | 64 | 63 | 1.0 | 2.0 | 0.00 | 0.00 | 0.00 | 88 | 1023.5 |
| 20260831090304 | 64 | 187 | 1.0 | 2.0 | 0.00 | 0.00 | 0.00 | 88 | 1023.0 |
| 20260831090044 | 63 | 0 | 0.0 | 1.0 | 0.00 | 0.00 | 0.00 | 100 | 1024.0 |
| 20260831090002 | 64 | 269 | 1.0 | 2.0 | 0.00 | 0.00 | 0.00 | 88 | 1023.5 |
| 20260831085804 | 64 | 71 | 1.0 | 2.0 | 0.00 | 0.00 | 0.00 | 88 | 1023.0 |
| 20260831085502 | 64 | 269 | 0.0 | 2.0 | 0.00 | 0.00 | 0.00 | 88 | 1023.5 |
| 20260831085306 | 63 | 291 | 1.0 | 2.0 | 0.00 | 0.00 | 0.00 | 88 | 1023.0 |
| 20260831085002 | 63 | 178 | 1.0 | 2.0 | 0.00 | 0.00 | 0.00 | 89 | 1023.5 |
| 20260831084804 | 63 | 65 | 1.0 | 2.0 | 0.00 | 0.00 | 0.00 | 89 | 1022.9 |
| 20260831084543 | 63 | 0 | 1.0 | 2.0 | 0.00 | 0.00 | 0.00 | 100 | 1024.0 |
| 20260831084502 | 63 | 59 | 1.0 | 2.0 | 0.00 | 0.00 | 0.00 | 89 | 1023.5 |
| 20260831084303 | 63 | 43 | 1.0 | 2.0 | 0.00 | 0.00 | 0.00 | 89 | 1022.9 |
| 20260831084002 | 63 | 35 | 1.0 | 2.0 | 0.00 | 0.00 | 0.00 | 90 | 1023.4 |
| 20260831083803 | 63 | 64 | 1.0 | 2.0 | 0.00 | 0.00 | 0.00 | 90 | 1022.9 |
| 20260831083502 | 63 | 178 | 1.0 | 2.0 | 0.00 | 0.00 | 0.00 | 90 | 1023.5 |
| 20260831083303 | 63 | 52 | 1.0 | 2.0 | 0.00 | 0.00 | 0.00 | 90 | 1022.9 |
| 20260831083046 | 62 | 309 | 0.0 | 4.0 | 0.00 | 0.00 | 0.00 | 100 | 1024.0 |
| 20260831083003 | 63 | 178 | 1.0 | 3.0 | 0.00 | 0.00 | 0.00 | 90 | 1023.4 |
| 20260831082803 | 63 | 182 | 1.0 | 3.0 | 0.00 | 0.00 | 0.00 | 90 | 1022.9 |
| 20260831082503 | 62 | 1 | 1.0 | 3.0 | 0.00 | 0.00 | 0.00 | 90 | 1023.5 |
| 20260831082306 | 62 | 340 | 1.0 | 3.0 | 0.00 | 0.00 | 0.00 | 90 | 1023.0 |
| 20260831082002 | 62 | 28 | 1.0 | 2.0 | 0.00 | 0.00 | 0.00 | 91 | 1023.4 |
| 20260831081803 | 62 | 192 | 1.0 | 2.0 | 0.00 | 0.00 | 0.00 | 91 | 1022.8 |
| 20260831081544 | 62 | 309 | 0.0 | 1.0 | 0.00 | 0.00 | 0.00 | 100 | 1023.9 |
| 20260831081502 | 62 | 223 | 1.0 | 2.0 | 0.00 | 0.00 | 0.00 | 91 | 1023.3 |
| 20260831081229 | 62 | 223 | 1.0 | 2.0 | 0.00 | 0.00 | 0.00 | 91 | 1023.3 |
| 20260831080803 | 62 | 184 | 1.0 | 3.0 | 0.00 | 0.00 | 0.00 | 92 | 1022.7 |
| 20260831080502 | 61 | 145 | 0.0 | 2.0 | 0.00 | 0.00 | 0.00 | 92 | 1023.3 |
| 20260831080304 | 61 | 225 | 1.0 | 2.0 | 0.00 | 0.00 | 0.00 | 92 | 1022.8 |
| 20260831080110 | 61 | 64 | 1.0 | 2.0 | 0.00 | 0.00 | 0.00 | 100 | 1023.9 |
| 20260831080002 | 61 | 45 | 1.0 | 2.0 | 0.00 | 0.00 | 0.00 | 92 | 1023.4 |
| 20260831075804 | 61 | 147 | 1.0 | 3.0 | 0.00 | 0.00 | 0.00 | 92 | 1022.8 |
| 20260831075723 | 61 | 314 | 1.0 | 2.0 | 0.00 | 0.00 | 0.00 | 92 | 1023.3 |
| 20260831075306 | 61 | 146 | 1.0 | 2.0 | 0.00 | 0.00 | 0.00 | 92 | 1022.8 |
| 20260831075002 | 60 | 269 | 0.0 | 2.0 | 0.00 | 0.00 | 0.00 | 92 | 1023.3 |
| 20260831074804 | 60 | 240 | 1.0 | 3.0 | 0.00 | 0.00 | 0.00 | 92 | 1022.7 |
| 20260831074545 | 60 | 137 | 1.0 | 2.0 | 0.00 | 0.00 | 0.00 | 100 | 1023.9 |
| 20260831074508 | 60 | 142 | 2.0 | 2.0 | 0.00 | 0.00 | 0.00 | 92 | 1023.3 |
| 20260831074303 | 60 | 58 | 1.0 | 2.0 | 0.00 | 0.00 | 0.00 | 92 | 1022.7 |
| 20260831074003 | 60 | 336 | 1.0 | 2.0 | 0.00 | 0.00 | 0.00 | 92 | 1023.2 |
| 20260831073803 | 60 | 264 | 1.0 | 1.0 | 0.00 | 0.00 | 0.00 | 92 | 1022.5 |
| 20260831073501 | 60 | 152 | 1.0 | 1.0 | 0.00 | 0.00 | 0.00 | 92 | 1023.1 |
| 20260831073303 | 60 | 194 | 0.0 | 2.0 | 0.00 | 0.00 | 0.00 | 92 | 1022.6 |
| 20260831073110 | 59 | 0 | 0.0 | 2.0 | 0.00 | 0.00 | 0.00 | 100 | 1023.7 |
| 20260831073002 | 60 | 178 | 1.0 | 2.0 | 0.00 | 0.00 | 0.00 | 92 | 1023.2 |
| 20260831072804 | 60 | 340 | 1.0 | 1.0 | 0.00 | 0.00 | 0.00 | 92 | 1022.5 |
| 20260831072502 | 60 | 303 | 0.0 | 2.0 | 0.00 | 0.00 | 0.00 | 92 | 1023.1 |
| 20260831072306 | 60 | 158 | 1.0 | 2.0 | 0.00 | 0.00 | 0.00 | 92 | 1022.4 |
| 20260831072003 | 60 | 161 | 1.0 | 2.0 | 0.00 | 0.00 | 0.00 | 92 | 1023.0 |
| 20260831071721 | 60 | 314 | 1.0 | 2.0 | 0.00 | 0.00 | 0.00 | 92 | 1023.0 |
| 20260831071551 | 59 | 9 | 1.0 | 2.0 | 0.00 | 0.00 | 0.00 | 100 | 1023.6 |
| 20260831071305 | 59 | 348 | 1.0 | 2.0 | 0.00 | 0.00 | 0.00 | 92 | 1022.4 |
| 20260831071003 | 59 | 161 | 1.0 | 3.0 | 0.00 | 0.00 | 0.00 | 92 | 1022.9 |
| 20260831070803 | 59 | 163 | 1.0 | 3.0 | 0.00 | 0.00 | 0.00 | 91 | 1022.3 |
| 20260831070501 | 60 | 341 | 1.0 | 3.0 | 0.00 | 0.00 | 0.00 | 92 | 1022.9 |
| 20260831070048 | 65 | 221 | 1.0 | 2.0 | 0.00 | 0.00 | 0.00 | 100 | 1023.4 |
| 20260831070002 | 59 | 223 | 1.0 | 3.0 | 0.00 | 0.00 | 0.00 | 91 | 1022.9 |
| 20260831065803 | 59 | 180 | 1.0 | 3.0 | 0.00 | 0.00 | 0.00 | 91 | 1022.2 |
| 20260831065723 | 60 | 1 | 1.0 | 3.0 | 0.00 | 0.00 | 0.00 | 92 | 1022.7 |
| 20260831065002 | 60 | 314 | 2.0 | 3.0 | 0.00 | 0.00 | 0.00 | 92 | 1022.6 |
| 20260831064804 | 60 | 158 | 1.0 | 3.0 | 0.00 | 0.00 | 0.00 | 92 | 1022.1 |
| 20260831064546 | 65 | 178 | 0.0 | 1.0 | 0.00 | 0.00 | 0.00 | 100 | 1023.2 |
| 20260831064502 | 60 | 223 | 1.0 | 1.0 | 0.00 | 0.00 | 0.00 | 91 | 1022.6 |
| 20260831064304 | 60 | 162 | 1.0 | 2.0 | 0.00 | 0.00 | 0.00 | 91 | 1022.1 |
| 20260831064002 | 60 | 135 | 0.0 | 1.0 | 0.00 | 0.00 | 0.00 | 91 | 1022.5 |
| 20260831063804 | 60 | 0 | 0.0 | 1.0 | 0.00 | 0.00 | 0.00 | 91 | 1022.1 |
| 20260831063502 | 60 | 1 | 0.0 | 2.0 | 0.00 | 0.00 | 0.00 | 91 | 1022.5 |
| 20260831063303 | 60 | 207 | 0.0 | 2.0 | 0.00 | 0.00 | 0.00 | 91 | 1022.0 |
| 20260831063045 | 65 | 0 | 1.0 | 2.0 | 0.00 | 0.00 | 0.00 | 100 | 1023.1 |
| 20260831063002 | 60 | 223 | 1.0 | 2.0 | 0.00 | 0.00 | 0.00 | 91 | 1022.5 |
| 20260831062502 | 60 | 178 | 1.0 | 2.0 | 0.00 | 0.00 | 0.00 | 91 | 1022.4 |
| 20260831062306 | 60 | 160 | 1.0 | 2.0 | 0.00 | 0.00 | 0.00 | 91 | 1021.9 |
| 20260831062003 | 60 | 178 | 0.0 | 1.0 | 0.00 | 0.00 | 0.00 | 91 | 1022.4 |
| 20260831061804 | 60 | 223 | 1.0 | 1.0 | 0.00 | 0.00 | 0.00 | 91 | 1021.9 |
| 20260831061542 | 65 | 0 | 0.0 | 1.0 | 0.00 | 0.00 | 0.00 | 100 | 1023.1 |
| 20260831061503 | 60 | 223 | 0.0 | 2.0 | 0.00 | 0.00 | 0.00 | 91 | 1022.4 |
| 20260831061304 | 60 | 172 | 0.0 | 2.0 | 0.00 | 0.00 | 0.00 | 91 | 1021.9 |
| 20260831061002 | 60 | 157 | 1.0 | 4.0 | 0.00 | 0.00 | 0.00 | 91 | 1022.4 |
| 20260831060803 | 60 | 145 | 1.0 | 3.0 | 0.00 | 0.00 | 0.00 | 91 | 1021.8 |
| 20260831060503 | 60 | 137 | 1.0 | 4.0 | 0.00 | 0.00 | 0.00 | 91 | 1022.3 |
| 20260831060304 | 60 | 172 | 1.0 | 3.0 | 0.00 | 0.00 | 0.00 | 91 | 1021.9 |
| 20260831060223 | 60 | 223 | 1.0 | 2.0 | 0.00 | 0.00 | 0.00 | 91 | 1022.3 |
| 20260831060054 | 65 | 165 | 0.0 | 1.0 | 0.00 | 0.00 | 0.00 | 100 | 1023.1 |
| 20260831055804 | 60 | 165 | 0.0 | 1.0 | 0.00 | 0.00 | 0.00 | 91 | 1021.9 |
| 20260831055503 | 60 | 269 | 0.0 | 1.0 | 0.00 | 0.00 | 0.00 | 91 | 1022.4 |
| 20260831055306 | 60 | 232 | 0.0 | 2.0 | 0.00 | 0.00 | 0.00 | 91 | 1021.9 |
| 20260831055001 | 60 | 178 | 1.0 | 1.0 | 0.00 | 0.00 | 0.00 | 91 | 1022.4 |
| 20260831054550 | 65 | 0 | 0.0 | 1.0 | 0.00 | 0.00 | 0.00 | 100 | 1023.0 |
| 20260831054502 | 60 | 223 | 0.0 | 2.0 | 0.00 | 0.00 | 0.00 | 91 | 1022.3 |
| 20260831054304 | 60 | 219 | 0.0 | 1.0 | 0.00 | 0.00 | 0.00 | 91 | 1021.8 |
| 20260831054003 | 60 | 45 | 0.0 | 2.0 | 0.00 | 0.00 | 0.00 | 91 | 1022.3 |
| 20260831053804 | 60 | 225 | 1.0 | 2.0 | 0.00 | 0.00 | 0.00 | 91 | 1021.8 |
| 20260831053501 | 60 | 145 | 1.0 | 2.0 | 0.00 | 0.00 | 0.00 | 91 | 1022.2 |
| 20260831053304 | 60 | 155 | 1.0 | 2.0 | 0.00 | 0.00 | 0.00 | 91 | 1021.7 |
| 20260831053048 | 65 | 153 | 1.0 | 2.0 | 0.00 | 0.00 | 0.00 | 100 | 1022.9 |
| 20260831053003 | 60 | 178 | 1.0 | 1.0 | 0.00 | 0.00 | 0.00 | 91 | 1022.2 |
| 20260831052502 | 60 | 45 | 0.0 | 1.0 | 0.00 | 0.00 | 0.00 | 91 | 1022.2 |
| 20260831052306 | 60 | 147 | 1.0 | 2.0 | 0.00 | 0.00 | 0.00 | 91 | 1021.7 |
| 20260831052002 | 60 | 223 | 0.0 | 2.0 | 0.00 | 0.00 | 0.00 | 91 | 1022.3 |
| 20260831051803 | 60 | 209 | 0.0 | 2.0 | 0.00 | 0.00 | 0.00 | 91 | 1021.7 |
| 20260831051544 | 65 | 157 | 1.0 | 2.0 | 0.00 | 0.00 | 0.00 | 100 | 1022.9 |
| 20260831051504 | 60 | 178 | 1.0 | 2.0 | 0.00 | 0.00 | 0.00 | 91 | 1022.2 |
| 20260831051003 | 60 | 135 | 1.0 | 2.0 | 0.00 | 0.00 | 0.00 | 90 | 1022.2 |
| 20260831050803 | 60 | 167 | 1.0 | 1.0 | 0.00 | 0.00 | 0.00 | 90 | 1021.7 |
| 20260831050503 | 60 | 1 | 0.0 | 1.0 | 0.00 | 0.00 | 0.00 | 90 | 1022.3 |
| 20260831050303 | 60 | 253 | 0.0 | 1.0 | 0.00 | 0.00 | 0.00 | 90 | 1021.8 |
| 20260831050046 | 65 | 0 | 0.0 | 1.0 | 0.00 | 0.00 | 0.00 | 100 | 1022.8 |
| 20260831050002 | 60 | 45 | 0.0 | 1.0 | 0.00 | 0.00 | 0.00 | 90 | 1022.2 |
| 20260831045503 | 60 | 241 | 0.0 | 2.0 | 0.00 | 0.00 | 0.00 | 91 | 1022.1 |
| 20260831045306 | 60 | 126 | 0.0 | 1.0 | 0.00 | 0.00 | 0.00 | 91 | 1021.6 |
| 20260831045004 | 60 | 135 | 0.0 | 2.0 | 0.00 | 0.00 | 0.00 | 90 | 1022.1 |
| 20260831044554 | 65 | 171 | 1.0 | 2.0 | 0.00 | 0.00 | 0.00 | 100 | 1022.6 |
| 20260831044502 | 60 | 152 | 1.0 | 2.0 | 0.00 | 0.00 | 0.00 | 90 | 1022.1 |
| 20260831044304 | 60 | 153 | 1.0 | 2.0 | 0.00 | 0.00 | 0.00 | 90 | 1021.6 |
| 20260831044002 | 60 | 206 | 0.0 | 2.0 | 0.00 | 0.00 | 0.00 | 90 | 1022.1 |
| 20260831043804 | 60 | 264 | 0.0 | 2.0 | 0.00 | 0.00 | 0.00 | 90 | 1021.5 |
| 20260831043502 | 60 | 45 | 0.0 | 2.0 | 0.00 | 0.00 | 0.00 | 90 | 1022.1 |
| 20260831043304 | 60 | 159 | 1.0 | 2.0 | 0.00 | 0.00 | 0.00 | 90 | 1021.6 |
| 20260831043226 | 60 | 269 | 0.0 | 2.0 | 0.00 | 0.00 | 0.00 | 90 | 1022.1 |
| 20260831043047 | 65 | 0 | 0.0 | 1.0 | 0.00 | 0.00 | 0.00 | 100 | 1022.5 |
| 20260831042727 | 60 | 178 | 1.0 | 2.0 | 0.00 | 0.00 | 0.00 | 90 | 1022.0 |
| 20260831042306 | 60 | 162 | 0.0 | 3.0 | 0.00 | 0.00 | 0.00 | 90 | 1021.6 |
| 20260831042002 | 60 | 178 | 1.0 | 2.0 | 0.00 | 0.00 | 0.00 | 90 | 1022.0 |
| 20260831041804 | 60 | 156 | 1.0 | 2.0 | 0.00 | 0.00 | 0.00 | 90 | 1021.6 |
| 20260831041706 | 60 | 127 | 1.0 | 2.0 | 0.00 | 0.00 | 0.00 | 90 | 1022.1 |
| 20260831041654 | 60 | 178 | 1.0 | 2.0 | 0.00 | 0.00 | 0.00 | 90 | 1022.0 |
| 20260831041553 | 65 | 360 | 1.0 | 2.0 | 0.00 | 0.00 | 0.00 | 100 | 1022.6 |
| 20260831040804 | 60 | 163 | 1.0 | 2.0 | 0.00 | 0.00 | 0.00 | 90 | 1021.6 |
| 20260831040734 | 60 | 145 | 1.0 | 2.0 | 0.00 | 0.00 | 0.00 | 90 | 1022.0 |
| 20260831040303 | 60 | 140 | 1.0 | 2.0 | 0.00 | 0.00 | 0.00 | 90 | 1021.6 |
| 20260831040043 | 65 | 0 | 1.0 | 3.0 | 0.00 | 0.00 | 0.00 | 100 | 1022.6 |
| 20260831040002 | 60 | 168 | 2.0 | 3.0 | 0.00 | 0.00 | 0.00 | 90 | 1022.1 |
| 20260831035504 | 60 | 161 | 2.0 | 3.0 | 0.00 | 0.00 | 0.00 | 90 | 1022.1 |
| 20260831035306 | 60 | 154 | 1.0 | 3.0 | 0.00 | 0.00 | 0.00 | 90 | 1021.7 |
| 20260831035002 | 60 | 148 | 1.0 | 3.0 | 0.00 | 0.00 | 0.00 | 90 | 1022.1 |
| 20260831034805 | 60 | 163 | 1.0 | 2.0 | 0.00 | 0.00 | 0.00 | 90 | 1021.7 |
| 20260831034720 | 60 | 152 | 1.0 | 3.0 | 0.00 | 0.00 | 0.00 | 90 | 1022.2 |
| 20260831034549 | 65 | 111 | 1.0 | 2.0 | 0.00 | 0.00 | 0.00 | 100 | 1022.7 |
| 20260831034230 | 60 | 223 | 1.0 | 3.0 | 0.00 | 0.00 | 0.00 | 90 | 1022.2 |
| 20260831033502 | 60 | 161 | 1.0 | 2.0 | 0.00 | 0.00 | 0.00 | 89 | 1022.3 |
| 20260831033303 | 60 | 160 | 1.0 | 2.0 | 0.00 | 0.00 | 0.00 | 89 | 1021.8 |
| 20260831033043 | 65 | 0 | 1.0 | 2.0 | 0.00 | 0.00 | 0.00 | 100 | 1022.8 |
| 20260831033003 | 60 | 135 | 1.0 | 2.0 | 0.00 | 0.00 | 0.00 | 89 | 1022.2 |
| 20260831032504 | 60 | 89 | 1.0 | 2.0 | 0.00 | 0.00 | 0.00 | 89 | 1022.2 |
| 20260831032306 | 60 | 167 | 1.0 | 2.0 | 0.00 | 0.00 | 0.00 | 89 | 1021.8 |
| 20260831032002 | 60 | 145 | 2.0 | 2.0 | 0.00 | 0.00 | 0.00 | 89 | 1022.2 |
| 20260831031804 | 60 | 155 | 1.0 | 2.0 | 0.00 | 0.00 | 0.00 | 88 | 1021.7 |
| 20260831031544 | 65 | 0 | 0.0 | 1.0 | 0.00 | 0.00 | 0.00 | 100 | 1022.7 |
| 20260831031502 | 60 | 178 | 0.0 | 2.0 | 0.00 | 0.00 | 0.00 | 88 | 1022.2 |
| 20260831031457 | 60 | 178 | 0.0 | 2.0 | 0.00 | 0.00 | 0.00 | 88 | 1022.3 |
| 20260831031304 | 60 | 190 | 0.0 | 1.0 | 0.00 | 0.00 | 0.00 | 88 | 1021.7 |
| 20260831030804 | 61 | 172 | 1.0 | 2.0 | 0.00 | 0.00 | 0.00 | 88 | 1021.8 |
| 20260831030502 | 61 | 178 | 1.0 | 2.0 | 0.00 | 0.00 | 0.00 | 88 | 1022.2 |
| 20260831030304 | 61 | 156 | 1.0 | 2.0 | 0.00 | 0.00 | 0.00 | 88 | 1021.7 |
| 20260831030043 | 65 | 0 | 0.0 | 2.0 | 0.00 | 0.00 | 0.00 | 100 | 1022.7 |
| 20260831030002 | 61 | 135 | 1.0 | 2.0 | 0.00 | 0.00 | 0.00 | 88 | 1022.2 |
| 20260831025503 | 61 | 152 | 1.0 | 2.0 | 0.00 | 0.00 | 0.00 | 88 | 1022.2 |
| 20260831025306 | 61 | 148 | 1.0 | 3.0 | 0.00 | 0.00 | 0.00 | 88 | 1021.8 |
| 20260831025004 | 61 | 145 | 1.0 | 3.0 | 0.00 | 0.00 | 0.00 | 88 | 1022.2 |
| 20260831024804 | 61 | 164 | 1.0 | 3.0 | 0.00 | 0.00 | 0.00 | 88 | 1021.8 |
| 20260831024548 | 65 | 162 | 1.0 | 2.0 | 0.00 | 0.00 | 0.00 | 100 | 1022.7 |
| 20260831024502 | 61 | 165 | 2.0 | 3.0 | 0.00 | 0.00 | 0.00 | 88 | 1022.2 |
| 20260831024002 | 61 | 152 | 1.0 | 3.0 | 0.00 | 0.00 | 0.00 | 88 | 1022.1 |
| 20260831023804 | 61 | 146 | 1.0 | 3.0 | 0.00 | 0.00 | 0.00 | 88 | 1021.8 |
| 20260831023502 | 61 | 145 | 2.0 | 3.0 | 0.00 | 0.00 | 0.00 | 88 | 1022.2 |
| 20260831023304 | 61 | 148 | 1.0 | 3.0 | 0.00 | 0.00 | 0.00 | 88 | 1021.7 |
| 20260831023227 | 61 | 135 | 1.0 | 3.0 | 0.00 | 0.00 | 0.00 | 88 | 1022.2 |
| 20260831023045 | 65 | 162 | 1.0 | 3.0 | 0.00 | 0.00 | 0.00 | 100 | 1022.6 |
| 20260831022804 | 61 | 158 | 1.0 | 3.0 | 0.00 | 0.00 | 0.00 | 88 | 1021.8 |
| 20260831022505 | 61 | 142 | 1.0 | 3.0 | 0.00 | 0.00 | 0.00 | 88 | 1022.2 |
| 20260831022319 | 61 | 127 | 2.0 | 3.0 | 0.00 | 0.00 | 0.00 | 88 | 1022.1 |
| 20260831021547 | 65 | 146 | 2.0 | 3.0 | 0.00 | 0.00 | 0.00 | 100 | 1022.6 |
| 20260831021505 | 61 | 157 | 2.0 | 3.0 | 0.00 | 0.00 | 0.00 | 88 | 1022.1 |
| 20260831021303 | 61 | 153 | 2.0 | 3.0 | 0.00 | 0.00 | 0.00 | 88 | 1021.7 |
| 20260831021005 | 61 | 165 | 2.0 | 3.0 | 0.00 | 0.00 | 0.00 | 88 | 1022.2 |
| 20260831020804 | 61 | 159 | 1.0 | 3.0 | 0.00 | 0.00 | 0.00 | 88 | 1021.7 |
| 20260831020507 | 61 | 171 | 2.0 | 3.0 | 0.00 | 0.00 | 0.00 | 88 | 1022.1 |
| 20260831020304 | 61 | 165 | 1.0 | 3.0 | 0.00 | 0.00 | 0.00 | 88 | 1021.6 |
| 20260831020044 | 65 | 158 | 1.0 | 2.0 | 0.00 | 0.00 | 0.00 | 100 | 1022.5 |
| 20260831020002 | 61 | 157 | 2.0 | 3.0 | 0.00 | 0.00 | 0.00 | 88 | 1022.0 |
| 20260831015803 | 61 | 163 | 1.0 | 2.0 | 0.00 | 0.00 | 0.00 | 88 | 1021.6 |
| 20260831015512 | 61 | 178 | 1.0 | 2.0 | 0.00 | 0.00 | 0.00 | 88 | 1022.0 |
| 20260831015306 | 61 | 139 | 1.0 | 2.0 | 0.00 | 0.00 | 0.00 | 88 | 1021.6 |
| 20260831015002 | 61 | 45 | 1.0 | 2.0 | 0.00 | 0.00 | 0.00 | 88 | 1022.0 |
| 20260831014804 | 61 | 145 | 1.0 | 2.0 | 0.00 | 0.00 | 0.00 | 88 | 1021.6 |
| 20260831014549 | 65 | 144 | 0.0 | 2.0 | 0.00 | 0.00 | 0.00 | 100 | 1022.6 |
| 20260831014510 | 61 | 168 | 1.0 | 2.0 | 0.00 | 0.00 | 0.00 | 88 | 1022.0 |
| 20260831014303 | 61 | 154 | 1.0 | 3.0 | 0.00 | 0.00 | 0.00 | 88 | 1021.6 |
| 20260831014243 | 61 | 157 | 1.0 | 2.0 | 0.00 | 0.00 | 0.00 | 88 | 1022.0 |
| 20260831013804 | 61 | 148 | 1.0 | 2.0 | 0.00 | 0.00 | 0.00 | 88 | 1021.5 |
| 20260831013506 | 61 | 128 | 1.0 | 3.0 | 0.00 | 0.00 | 0.00 | 88 | 1022.0 |
| 20260831013304 | 61 | 163 | 1.0 | 3.0 | 0.00 | 0.00 | 0.00 | 88 | 1021.5 |
| 20260831013225 | 61 | 165 | 1.0 | 3.0 | 0.00 | 0.00 | 0.00 | 87 | 1022.0 |
| 20260831013053 | 65 | 178 | 1.0 | 2.0 | 0.00 | 0.00 | 0.00 | 100 | 1022.5 |
| 20260831013005 | 61 | 165 | 1.0 | 3.0 | 0.00 | 0.00 | 0.00 | 87 | 1022.0 |
| 20260831012804 | 61 | 158 | 1.0 | 3.0 | 0.00 | 0.00 | 0.00 | 87 | 1021.5 |
| 20260831012734 | 61 | 142 | 1.0 | 3.0 | 0.00 | 0.00 | 0.00 | 87 | 1021.9 |
| 20260831012306 | 61 | 169 | 1.0 | 3.0 | 0.00 | 0.00 | 0.00 | 87 | 1021.5 |
| 20260831012003 | 61 | 152 | 1.0 | 3.0 | 0.00 | 0.00 | 0.00 | 87 | 1022.0 |
| 20260831011547 | 65 | 149 | 1.0 | 2.0 | 0.00 | 0.00 | 0.00 | 100 | 1022.6 |
| 20260831011504 | 61 | 135 | 2.0 | 3.0 | 0.00 | 0.00 | 0.00 | 87 | 1022.1 |
| 20260831011304 | 61 | 164 | 1.0 | 3.0 | 0.00 | 0.00 | 0.00 | 87 | 1021.5 |
| 20260831011007 | 61 | 161 | 2.0 | 3.0 | 0.00 | 0.00 | 0.00 | 88 | 1021.9 |
| 20260831010803 | 61 | 146 | 2.0 | 3.0 | 0.00 | 0.00 | 0.00 | 88 | 1021.5 |
| 20260831010751 | 61 | 161 | 1.0 | 3.0 | 0.00 | 0.00 | 0.00 | 88 | 1022.0 |
| 20260831010304 | 61 | 160 | 2.0 | 5.0 | 0.00 | 0.00 | 0.00 | 88 | 1021.5 |
| 20260831010003 | 61 | 152 | 1.0 | 2.0 | 0.00 | 0.00 | 0.00 | 88 | 1022.0 |
| 20260831005803 | 61 | 145 | 1.0 | 2.0 | 0.00 | 0.00 | 0.00 | 88 | 1021.5 |
| 20260831005502 | 61 | 142 | 1.0 | 2.0 | 0.00 | 0.00 | 0.00 | 88 | 1022.0 |
| 20260831005306 | 61 | 152 | 1.0 | 3.0 | 0.00 | 0.00 | 0.00 | 88 | 1021.5 |
| 20260831005234 | 61 | 152 | 1.0 | 2.0 | 0.00 | 0.00 | 0.00 | 87 | 1022.0 |
| 20260831005005 | 61 | 152 | 1.0 | 2.0 | 0.00 | 0.00 | 0.00 | 87 | 1022.0 |
| 20260831004803 | 61 | 164 | 1.0 | 2.0 | 0.00 | 0.00 | 0.00 | 87 | 1021.7 |
| 20260831004544 | 65 | 165 | 0.0 | 2.0 | 0.00 | 0.00 | 0.00 | 100 | 1022.6 |
| 20260831004503 | 61 | 152 | 1.0 | 2.0 | 0.00 | 0.00 | 0.00 | 87 | 1022.1 |
| 20260831004303 | 61 | 160 | 1.0 | 2.0 | 0.00 | 0.00 | 0.00 | 87 | 1021.7 |
| 20260831004012 | 61 | 152 | 1.0 | 3.0 | 0.00 | 0.00 | 0.00 | 87 | 1022.2 |
| 20260831003804 | 61 | 160 | 1.0 | 2.0 | 0.00 | 0.00 | 0.00 | 87 | 1021.7 |
| 20260831003504 | 61 | 152 | 1.0 | 3.0 | 0.00 | 0.00 | 0.00 | 87 | 1022.2 |
| 20260831003303 | 61 | 141 | 1.0 | 3.0 | 0.00 | 0.00 | 0.00 | 87 | 1021.7 |
| 20260831003054 | 65 | 153 | 1.0 | 2.0 | 0.00 | 0.00 | 0.00 | 100 | 1022.8 |
| 20260831003003 | 61 | 165 | 1.0 | 2.0 | 0.00 | 0.00 | 0.00 | 87 | 1022.2 |
| 20260831002803 | 61 | 166 | 1.0 | 2.0 | 0.00 | 0.00 | 0.00 | 87 | 1021.7 |
| 20260831002502 | 61 | 171 | 1.0 | 2.0 | 0.00 | 0.00 | 0.00 | 87 | 1022.2 |
| 20260831002001 | 61 | 135 | 1.0 | 3.0 | 0.00 | 0.00 | 0.00 | 87 | 1022.3 |
| 20260831001804 | 61 | 162 | 1.0 | 3.0 | 0.00 | 0.00 | 0.00 | 87 | 1021.7 |
| 20260831001548 | 65 | 153 | 1.0 | 2.0 | 0.00 | 0.00 | 0.00 | 100 | 1022.8 |
| 20260831001503 | 61 | 145 | 1.0 | 3.0 | 0.00 | 0.00 | 0.00 | 86 | 1022.2 |
| 20260831001303 | 61 | 163 | 1.0 | 2.0 | 0.00 | 0.00 | 0.00 | 86 | 1021.8 |
| 20260831001002 | 61 | 165 | 1.0 | 3.0 | 0.00 | 0.00 | 0.00 | 86 | 1022.3 |
| 20260831000803 | 61 | 165 | 1.0 | 2.0 | 0.00 | 0.00 | 0.00 | 86 | 1021.8 |
| 20260831000503 | 61 | 165 | 1.0 | 3.0 | 0.00 | 0.00 | 0.00 | 86 | 1022.3 |
| 20260831000304 | 61 | 153 | 1.0 | 3.0 | 0.00 | 0.00 | 0.00 | 86 | 1021.8 |
| 20260831000045 | 65 | 165 | 1.0 | 2.0 | 0.00 | 0.00 | 0.00 | 100 | 1022.8 |
| 20260831000002 | 61 | 178 | 1.0 | 3.0 | 0.00 | 0.00 | 0.00 | 85 | 1022.3 |
| 20260830235803 | 61 | 170 | 1.0 | 3.0 | 0.00 | 0.00 | 0.00 | 85 | 1021.7 |
| 20260830235502 | 61 | 178 | 2.0 | 3.0 | 0.00 | 0.00 | 0.00 | 85 | 1022.3 |
| 20260830235306 | 61 | 148 | 2.0 | 5.0 | 0.00 | 0.00 | 0.00 | 86 | 1021.7 |
| 20260830235220 | 61 | 140 | 1.0 | 3.0 | 0.00 | 0.00 | 0.00 | 86 | 1022.3 |
| 20260830234804 | 61 | 164 | 1.0 | 3.0 | 0.00 | 0.00 | 0.00 | 86 | 1021.7 |
| 20260830234546 | 65 | 221 | 1.0 | 3.0 | 0.00 | 0.00 | 0.00 | 100 | 1022.9 |
| 20260830234504 | 61 | 152 | 1.0 | 4.0 | 0.00 | 0.00 | 0.00 | 86 | 1022.3 |
| 20260830234304 | 61 | 174 | 1.0 | 3.0 | 0.00 | 0.00 | 0.00 | 85 | 1021.7 |
| 20260830234002 | 61 | 206 | 1.0 | 4.0 | 0.00 | 0.00 | 0.00 | 85 | 1022.3 |
| 20260830233804 | 61 | 156 | 1.0 | 3.0 | 0.00 | 0.00 | 0.00 | 85 | 1021.7 |
| 20260830233504 | 61 | 190 | 1.0 | 2.0 | 0.00 | 0.00 | 0.00 | 85 | 1022.3 |
| 20260830233303 | 61 | 166 | 1.0 | 2.0 | 0.00 | 0.00 | 0.00 | 85 | 1021.7 |
| 20260830233044 | 65 | 178 | 1.0 | 2.0 | 0.00 | 0.00 | 0.00 | 100 | 1022.9 |
| 20260830233003 | 61 | 145 | 1.0 | 3.0 | 0.00 | 0.00 | 0.00 | 85 | 1022.4 |
| 20260830232503 | 61 | 152 | 1.0 | 3.0 | 0.00 | 0.00 | 0.00 | 84 | 1022.3 |
| 20260830232305 | 62 | 149 | 2.0 | 3.0 | 0.00 | 0.00 | 0.00 | 84 | 1021.7 |
| 20260830232003 | 62 | 165 | 2.0 | 3.0 | 0.00 | 0.00 | 0.00 | 84 | 1022.4 |
| 20260830231549 | 65 | 146 | 1.0 | 2.0 | 0.00 | 0.00 | 0.00 | 100 | 1022.9 |
| 20260830231504 | 62 | 45 | 1.0 | 2.0 | 0.00 | 0.00 | 0.00 | 84 | 1022.3 |
| 20260830231304 | 62 | 170 | 1.0 | 2.0 | 0.00 | 0.00 | 0.00 | 84 | 1021.9 |
| 20260830231229 | 62 | 161 | 1.0 | 2.0 | 0.00 | 0.00 | 0.00 | 84 | 1022.4 |
| 20260830230803 | 62 | 163 | 1.0 | 3.0 | 0.00 | 0.00 | 0.00 | 84 | 1021.9 |
| 20260830230504 | 62 | 168 | 1.0 | 2.0 | 0.00 | 0.00 | 0.00 | 84 | 1022.5 |
| 20260830230046 | 65 | 178 | 1.0 | 2.0 | 0.00 | 0.00 | 0.00 | 100 | 1023.0 |
| 20260830230002 | 62 | 152 | 1.0 | 2.0 | 0.00 | 0.00 | 0.00 | 84 | 1022.5 |
| 20260830225803 | 62 | 165 | 1.0 | 2.0 | 0.00 | 0.00 | 0.00 | 84 | 1021.9 |
| 20260830225504 | 62 | 148 | 1.0 | 2.0 | 0.00 | 0.00 | 0.00 | 84 | 1022.5 |
| 20260830225229 | 62 | 178 | 1.0 | 2.0 | 0.00 | 0.00 | 0.00 | 83 | 1022.5 |
| 20260830224803 | 62 | 173 | 1.0 | 2.0 | 0.00 | 0.00 | 0.00 | 83 | 1021.9 |